Georgetown, SC

10:19 PM EDT on September 25, 2017 (GMT -0400)
Georgetown County

Weather History for KGGE - November, 2011

Change the Weather History Date:

Friday, November 4, 2011

  Actual Average Record
Temperature  
Mean Temperature 60 °F -  
Max Temperature 68 °F 73 °F 80 °F (2012)
Min Temperature 51 °F 51 °F 44 °F (2013)
Degree Days  
Heating Degree Days 6    
Growing Degree Days 10 (Base 50)    
Moisture  
Dew Point 52 °F    
Average Humidity 82    
Maximum Humidity 94    
Minimum Humidity 67    
Precipitation  
Precipitation 0.08 in - - ()
Sea Level Pressure  
Sea Level Pressure 29.77 in    
Wind  
Wind Speed 11 mph (West)    
Max Wind Speed 24 mph    
Max Gust Speed 32 mph    
Visibility 10 miles    
Events Rain    
Averages and records for this station are not official NWS values.
T = Trace of Precipitation, MM = Missing Value Source: NWS Daily Summary

Daily Weather History Graph

Daily Weather History Graph

Search for Another Location

Airport or City:

Trip Planner

Search our weather history database for the weather conditions in past years. The results will help you decide how hot, cold, wet, or windy it might be!

Date:

Astronomy

Nov. 04, 2011 Rise Set
Actual Time 7:38 AM EDT 6:23 PM EDT
Civil Twilight 7:12 AM EDT 6:48 PM EDT
Nautical Twilight 6:42 AM EDT 7:18 PM EDT
Astronomical Twilight 6:13 AM EDT 7:47 PM EDT
Moon 2:59 PM EDT (11/4) 2:05 AM EDT (11/4)
Length of Visible Light 11h 36m
Length of Day
10h 44m
Waxing Gibbous, 69% of the Moon is Illuminated
Nov 4
Waxing Gibbous
Nov 10
Full
Nov 18
Last Quarter
Nov 25
New
Dec 2
First Quarter

Hourly Weather History & Observations

Time (EDT) Temp. Dew Point Humidity Pressure Visibility Wind Dir Wind Speed Gust Speed Precip Events Conditions
12:15 AM 64.4 °F 59.0 °F 83% 29.87 in 10.0 mi South 8.1 mph - N/A   Mostly Cloudy
12:35 AM 64.4 °F 59.0 °F 83% 29.86 in 10.0 mi South 9.2 mph - N/A   Mostly Cloudy
1:15 AM 68.0 °F 59.0 °F 73% 29.84 in 10.0 mi South 9.2 mph - N/A   Overcast
1:35 AM 68.0 °F 59.0 °F 73% 29.82 in 10.0 mi South 9.2 mph - N/A   Overcast
2:15 AM 68.0 °F 59.0 °F 73% 29.82 in 10.0 mi SSW 10.4 mph 17.3 mph N/A   Overcast
2:35 AM 68.0 °F 59.0 °F 73% 29.80 in 10.0 mi South 10.4 mph - N/A   Overcast
2:55 AM 68.0 °F 59.0 °F 73% 29.80 in 10.0 mi SSW 10.4 mph 17.3 mph N/A   Overcast
3:15 AM 68.0 °F 60.8 °F 78% 29.78 in 10.0 mi South 8.1 mph - N/A   Overcast
3:35 AM 66.2 °F 62.6 °F 88% 29.78 in 5.0 mi SW 12.7 mph - 0.04 in Rain Light Rain
3:55 AM 64.4 °F 62.6 °F 94% 29.77 in 7.0 mi SSW 11.5 mph - 0.04 in Rain Rain
4:15 AM 64.4 °F 62.6 °F 94% 29.77 in 7.0 mi WSW 15.0 mph 23.0 mph 0.02 in Rain Light Rain
4:35 AM 64.4 °F 60.8 °F 88% 29.76 in 7.0 mi SW 10.4 mph 17.3 mph 0.03 in Rain Rain
4:55 AM 62.6 °F 60.8 °F 94% 29.76 in 10.0 mi SW 9.2 mph - 0.04 in Rain Light Rain
5:15 AM 62.6 °F 60.8 °F 94% 29.75 in 10.0 mi SW 6.9 mph - N/A   Overcast
5:35 AM 62.6 °F 60.8 °F 94% 29.75 in 10.0 mi SW 4.6 mph - N/A   Overcast
6:15 AM 62.6 °F 60.8 °F 94% 29.73 in 10.0 mi SW 6.9 mph - N/A   Overcast
6:35 AM 62.6 °F 59.0 °F 88% 29.73 in 10.0 mi SW 6.9 mph - N/A   Mostly Cloudy
6:55 AM 60.8 °F 59.0 °F 94% 29.72 in 10.0 mi SW 12.7 mph - N/A   Scattered Clouds
7:55 AM 60.8 °F 57.2 °F 88% 29.73 in 10.0 mi West 9.2 mph - N/A   Overcast
8:15 AM 60.8 °F 59.0 °F 94% 29.73 in 10.0 mi West 8.1 mph - N/A   Overcast
8:35 AM 60.8 °F 59.0 °F 94% 29.73 in 10.0 mi West 4.6 mph - N/A   Overcast
8:55 AM 60.8 °F 59.0 °F 94% 29.73 in 10.0 mi WSW 5.8 mph - N/A   Overcast
9:15 AM 55.4 °F 53.6 °F 94% 29.75 in 10.0 mi WNW 15.0 mph 23.0 mph N/A   Overcast
9:35 AM 53.6 °F 50.0 °F 88% 29.77 in 10.0 mi WNW 13.8 mph 23.0 mph N/A   Overcast
9:55 AM 53.6 °F 50.0 °F 88% 29.77 in 10.0 mi West 12.7 mph 17.3 mph N/A   Overcast
10:15 AM 53.6 °F 48.2 °F 82% 29.76 in 10.0 mi West 11.5 mph 18.4 mph N/A   Overcast
10:35 AM 53.6 °F 46.4 °F 77% 29.75 in 10.0 mi West 10.4 mph - N/A   Overcast
10:55 AM 53.6 °F 46.4 °F 77% 29.75 in 10.0 mi West 11.5 mph - N/A   Overcast
11:15 AM 51.8 °F 44.6 °F 76% 29.75 in 10.0 mi WNW 15.0 mph 21.9 mph N/A   Overcast
11:35 AM 51.8 °F 44.6 °F 76% 29.76 in 10.0 mi West 15.0 mph 19.6 mph N/A   Overcast
11:55 AM 51.8 °F 44.6 °F 76% 29.75 in 10.0 mi WNW 11.5 mph 18.4 mph N/A   Overcast
12:15 PM 51.8 °F 42.8 °F 71% 29.75 in 10.0 mi WNW 13.8 mph 20.7 mph N/A   Overcast
12:35 PM 53.6 °F 44.6 °F 72% 29.74 in 10.0 mi WNW 16.1 mph 20.7 mph N/A   Overcast
12:55 PM 55.4 °F 44.6 °F 67% 29.73 in 10.0 mi WNW 9.2 mph 17.3 mph N/A   Mostly Cloudy
1:15 PM 55.4 °F 44.6 °F 67% 29.72 in 10.0 mi West 13.8 mph - N/A   Mostly Cloudy
1:35 PM 53.6 °F 44.6 °F 72% 29.72 in 10.0 mi WNW 11.5 mph 21.9 mph N/A   Overcast
1:55 PM 53.6 °F 44.6 °F 72% 29.72 in 10.0 mi West 16.1 mph 21.9 mph N/A   Overcast
2:15 PM 51.8 °F 44.6 °F 76% 29.73 in 10.0 mi West 18.4 mph 23.0 mph N/A   Overcast
2:55 PM 51.8 °F 46.4 °F 82% 29.73 in 10.0 mi West 11.5 mph 17.3 mph N/A   Overcast
3:15 PM 51.8 °F 46.4 °F 82% 29.73 in 10.0 mi West 12.7 mph 17.3 mph N/A   Overcast
3:35 PM 53.6 °F 48.2 °F 82% 29.72 in 10.0 mi WNW 12.7 mph 18.4 mph N/A   Overcast
3:55 PM 55.4 °F 50.0 °F 82% 29.72 in 10.0 mi WNW 13.8 mph - N/A   Overcast
4:15 PM 55.4 °F 50.0 °F 82% 29.72 in 10.0 mi NW 12.7 mph 16.1 mph N/A   Overcast
4:35 PM 55.4 °F 50.0 °F 82% 29.73 in 10.0 mi WNW 12.7 mph 17.3 mph N/A   Overcast
4:55 PM 55.4 °F 51.8 °F 88% 29.74 in 10.0 mi NW 9.2 mph 17.3 mph N/A   Overcast
5:15 PM 55.4 °F 51.8 °F 88% 29.75 in 10.0 mi NNW 16.1 mph 24.2 mph N/A   Overcast
5:35 PM 55.4 °F 50.0 °F 82% 29.77 in 10.0 mi NNW 24.2 mph 32.2 mph N/A   Overcast
5:55 PM 55.4 °F 48.2 °F 77% 29.79 in 10.0 mi North 17.3 mph 28.8 mph N/A   Overcast
6:15 PM 55.4 °F 48.2 °F 77% 29.81 in 10.0 mi North 13.8 mph 26.5 mph N/A   Overcast
6:35 PM 55.4 °F 48.2 °F 77% 29.82 in 10.0 mi North 16.1 mph 23.0 mph N/A   Overcast
6:55 PM 55.4 °F 48.2 °F 77% 29.83 in 10.0 mi North 12.7 mph 23.0 mph N/A   Overcast
7:15 PM 55.4 °F 46.4 °F 72% 29.85 in 10.0 mi NNW 9.2 mph 19.6 mph N/A   Overcast
7:35 PM 55.4 °F 46.4 °F 72% 29.87 in 10.0 mi NNW 15.0 mph 24.2 mph N/A   Overcast
7:55 PM 53.6 °F 46.4 °F 77% 29.88 in 10.0 mi NNW 13.8 mph 19.6 mph N/A   Overcast
8:35 PM 53.6 °F 48.2 °F 82% 29.90 in 10.0 mi North 15.0 mph 23.0 mph N/A   Overcast
8:55 PM 53.6 °F 46.4 °F 77% 29.91 in 10.0 mi NNW 16.1 mph 24.2 mph N/A   Overcast
9:15 PM 53.6 °F 46.4 °F 77% 29.91 in 10.0 mi NNW 15.0 mph 25.3 mph N/A   Overcast
9:35 PM 53.6 °F 46.4 °F 77% 29.93 in 10.0 mi North 16.1 mph 24.2 mph N/A   Overcast
9:55 PM 53.6 °F 46.4 °F 77% 29.94 in 10.0 mi North 15.0 mph 25.3 mph N/A   Overcast
10:15 PM 53.6 °F 48.2 °F 82% 29.96 in 10.0 mi North 15.0 mph 29.9 mph N/A Rain Light Rain
10:35 PM 53.6 °F 46.4 °F 77% 29.97 in 10.0 mi North 17.3 mph 24.2 mph N/A   Overcast
10:55 PM 53.6 °F 46.4 °F 77% 29.97 in 10.0 mi North 13.8 mph 21.9 mph N/A   Overcast
11:15 PM 53.6 °F 46.4 °F 77% 29.96 in 10.0 mi North 15.0 mph 24.2 mph N/A   Overcast
11:35 PM 53.6 °F 46.4 °F 77% 29.97 in 10.0 mi North 16.1 mph 23.0 mph N/A   Scattered Clouds
11:55 PM 51.8 °F 44.6 °F 76% 29.98 in 10.0 mi North 16.1 mph 21.9 mph N/A   Scattered Clouds